SCD 1 1 22490U 93009B 26073.33592028 .00000499 00000+0 85363-4 0 9998 2 22490 24.9695 73.2039 0041796 213.7890 169.6949 14.46071065747371 TECHSAT 1B (GO-32) 1 25397U 98043D 26073.93813911 .00000102 00000+0 64460-4 0 9999 2 25397 99.0030 64.3394 0002195 111.1627 248.9785 14.24407775437912 SCD 2 1 25504U 98060A 26073.91913520 .00000443 00000+0 72788-4 0 9993 2 25504 24.9955 293.4956 0016681 206.4103 176.4700 14.45485898446676 DLR-TUBSAT 1 25757U 99029B 26073.91281285 .00000160 00000+0 51148-4 0 9998 2 25757 98.6668 66.3314 0013030 277.5835 82.3879 14.52400021419569 TERRA 1 25994U 99068A 26073.91871573 .00000508 00000+0 11258-3 0 9992 2 25994 97.9582 127.1534 0003016 139.8124 273.4935 14.61020961395844 MAROC-TUBSAT 1 27004U 01056D 26073.72728755 -.00000008 00000+0 44220-4 0 9990 2 27004 99.8017 248.8192 0020132 26.9855 344.0747 13.70258254213255 AQUA 1 27424U 02022A 26073.87972053 .00001195 00000+0 24829-3 0 9997 2 27424 98.4182 41.3394 0000617 100.4652 287.3845 14.61990929269496 IRS-P6 (RESOURCESAT-1) 1 28051U 03046A 26073.97398534 .00000126 00000+0 56357-4 0 9993 2 28051 98.2042 115.0512 0062887 264.9432 214.0240 14.36120254167004 SHIYAN-1 (SY-1) 1 28220U 04012A 26073.70332073 .00019832 00000+0 65928-3 0 9999 2 28220 97.8766 145.7980 0005410 5.7403 354.3898 15.31214942196628 AURA 1 28376U 04026A 26073.90145223 .00001169 00000+0 24734-3 0 9991 2 28376 98.3317 29.6383 0001085 88.7894 271.3431 14.61162968152449 IRS-P5 (CARTOSAT-1) 1 28649U 05017A 26073.78281045 .00001777 00000+0 18601-3 0 9995 2 28649 97.5410 101.1029 0002147 63.0390 297.1048 14.90786229129759 SINAH 1 1 28893U 05043D 26073.94875720 .00000538 00000+0 11166-3 0 9995 2 28893 98.2693 207.7999 0013954 207.0587 152.9890 14.64080195 86739 RESURS-DK 1 1 29228U 06021A 26073.82531280 .00004096 00000+0 23886-3 0 9997 2 29228 69.9325 223.7373 0001351 156.1400 203.9829 15.12785899 88300 ARIRANG-2 (KOMPSAT-2) 1 29268U 06031A 26073.96102160 .00000568 00000+0 11523-3 0 9993 2 29268 97.8307 262.9601 0014925 17.9328 122.4268 14.64594422 47681 LAPAN-TUBSAT 1 29709U 07001A 26073.97797808 .00000168 00000+0 25910-4 0 9993 2 29709 98.1339 71.0934 0013148 127.8812 232.3594 14.85838389 37164 HAIYANG-1B 1 31113U 07010A 26073.89173068 .00000136 00000+0 67575-4 0 9990 2 31113 98.3433 59.4264 0014537 118.2340 242.0313 14.31001391987147 COSMO-SKYMED 1 1 31598U 07023A 26073.94651641 .00005161 00000+0 45842-3 0 9990 2 31598 97.8883 265.0209 0001612 94.2404 265.9002 14.96585322 15698 TERRASAR-X 1 31698U 07026A 26073.53900339 .00001063 00000+0 53827-4 0 9990 2 31698 97.4465 82.5928 0001839 80.8685 279.2758 15.19147382 38859 WORLDVIEW-1 (WV-1) 1 32060U 07041A 26073.95352439 .00009502 00000+0 39833-3 0 9995 2 32060 97.3811 195.0564 0003158 51.0948 309.0570 15.23714602 28528 YAOGAN-3 1 32289U 07055A 26073.94584148 .00002122 00000+0 22366-3 0 9990 2 32289 97.8272 104.7321 0001568 81.9031 278.2365 14.90390490991822 COSMO-SKYMED 2 1 32376U 07059A 26073.91633666 .00000609 00000+0 83032-4 0 9994 2 32376 97.8868 258.8768 0001325 84.4803 275.6561 14.82150520988039 RADARSAT-2 1 32382U 07061A 26073.92697925 .00000088 00000+0 51121-4 0 9998 2 32382 98.5821 82.1944 0001211 84.0763 276.0557 14.29980654952482 CARTOSAT-2A 1 32783U 08021A 26073.95024304 .00000428 00000+0 64537-4 0 9991 2 32783 97.7771 125.8273 0013139 61.2612 298.9918 14.79110037964879 HUANJING 1A (HJ-1A) 1 33320U 08041A 26073.96293535 .00001133 00000+0 14272-3 0 9990 2 33320 97.6639 63.4887 0020702 87.6171 272.7414 14.83738497944435 HUANJING 1B (HJ-1B) 1 33321U 08041B 26073.95845218 .00001333 00000+0 16783-3 0 9992 2 33321 97.6487 66.9328 0037513 130.8666 229.5809 14.83119266944449 GEOEYE 1 1 33331U 08042A 26073.94654819 .00000588 00000+0 11930-3 0 9998 2 33331 98.1198 149.0659 0003628 13.4702 346.6597 14.64774540936359 THEOS 1 33396U 08049A 26073.90989115 -.00000111 00000+0 -32351-4 0 9997 2 33396 98.5695 134.2092 0001058 92.0828 268.0470 14.20117750904583 COSMO-SKYMED 3 1 33412U 08054A 26073.90121419 .00006291 00000+0 43155-3 0 9993 2 33412 97.8411 290.8800 0014793 222.6772 137.3306 15.06296868942744 YAOGAN-4 1 33446U 08061A 26073.71295006 .00001621 00000+0 20577-3 0 9996 2 33446 97.9249 7.9665 0014997 23.9490 336.2418 14.82996045931662 GOSAT (IBUKI) 1 33492U 09002A 26072.27441068 .00000290 00000+0 59599-4 0 9992 2 33492 98.0769 184.6184 0001121 83.0514 277.0818 14.67545339917399 DEIMOS-1 1 35681U 09041A 26073.90350712 .00000931 00000+0 14500-3 0 9997 2 35681 97.7265 235.2815 0002465 110.5237 249.6238 14.75126070892986 DUBAISAT-1 1 35682U 09041B 26073.93251097 .00001392 00000+0 21466-3 0 9998 2 35682 97.9882 208.3160 0010736 20.4577 339.7060 14.74923192891201 OCEANSAT-2 1 35931U 09051A 26073.90915949 .00000388 00000+0 29096-3 0 9997 2 35931 98.2283 70.1958 0017470 136.8052 223.4488 13.99641585866146 WORLDVIEW-2 (WV-2) 1 35946U 09055A 26073.87616645 .00000150 00000+0 64005-4 0 9991 2 35946 98.4685 148.6676 0005263 132.5073 227.6560 14.37912880862090 SMOS 1 36036U 09059A 26073.53584639 .00000368 00000+0 13115-3 0 9992 2 36036 98.4431 262.2439 0000950 86.0583 274.0713 14.39764562859835 YAOGAN-7 1 36110U 09069A 26073.91546329 .00000784 00000+0 11584-3 0 9992 2 36110 98.0202 320.3038 0024358 346.5865 13.4695 14.77902405875706 TANDEM-X 1 36605U 10030A 26073.53900205 .00001228 00000+0 61651-4 0 9991 2 36605 97.4474 82.5932 0001931 100.0574 260.0879 15.19147509872277 CARTOSAT-2B 1 36795U 10035A 26072.45042603 .00001378 00000+0 19487-3 0 9990 2 36795 97.9147 123.6633 0012141 136.3975 223.8198 14.78661700845703 YAOGAN-10 1 36834U 10038A 26073.96787971 .00003041 00000+0 36250-3 0 9994 2 36834 97.9082 98.1026 0001697 90.2471 358.7181 14.85039111843228 COSMO-SKYMED 4 1 37216U 10060A 26073.92899432 .00000961 00000+0 12722-3 0 9992 2 37216 97.8870 258.8894 0001509 85.6650 274.4736 14.82147060830602 RESOURCESAT-2 1 37387U 11015A 26072.58350378 -.00000278 00000+0 -10661-3 0 9997 2 37387 98.7710 140.6462 0006503 129.1127 231.0630 14.21492639772598 HAIYANG-2A 1 37781U 11043A 26073.94205302 -.00000163 00000+0 -11808-3 0 9990 2 37781 99.3421 78.4611 0002151 253.2942 106.7973 13.78023106733691 RASAT 1 37791U 11044D 26073.92810993 .00000803 00000+0 14791-3 0 9991 2 37791 98.0551 166.7860 0021641 128.9691 341.8888 14.68065718779358 SRMSAT 1 37841U 11058D 26073.93795175 .00000465 00000+0 10856-3 0 9999 2 37841 19.9715 269.9394 0011718 247.0003 267.6131 14.11549952744487 PLEIADES 1A 1 38012U 11076F 26073.95675059 .00000256 00000+0 65018-4 0 9999 2 38012 98.2035 150.3033 0001696 85.8850 87.7119 14.58544373758258 ZIYUAN 1-02C (ZY 1-02C) 1 38038U 11079A 26073.96508383 .00000332 00000+0 12383-3 0 9997 2 38038 98.4165 143.2139 0005575 221.4486 311.9284 14.38128909745660 ARIRANG-3 (KOMPSAT-3) 1 38338U 12025B 26073.93780597 .00000657 00000+0 13988-3 0 9990 2 38338 98.1071 33.0850 0006570 57.5984 302.5852 14.62110713737578 EXACTVIEW-1 (ADS-1B) 1 38709U 12039C 26073.94024883 .00000171 00000+0 92808-4 0 9997 2 38709 98.9640 189.2666 0011893 84.5131 275.7404 14.24953600709286 SPOT 6 1 38755U 12047A 26073.93873898 .00000122 00000+0 36166-4 0 9995 2 38755 98.2212 142.3144 0001536 92.8221 267.3154 14.58545607719316 PLEIADES 1B 1 39019U 12068A 26073.95796894 .00000139 00000+0 39695-4 0 9992 2 39019 98.2006 150.2861 0001583 83.5964 276.5416 14.58531218707119 GOKTURK 2 1 39030U 12073A 26073.95326392 .00000836 00000+0 12990-3 0 9995 2 39030 97.6889 276.0728 0000909 66.8935 293.2371 14.75443364710614 LANDSAT 8 1 39084U 13008A 26073.94790503 .00000406 00000+0 10021-3 0 9997 2 39084 98.1908 145.5871 0001262 90.5668 269.5675 14.57116113684173 SARAL 1 39086U 13009A 26073.90835336 .00000138 00000+0 66603-4 0 9990 2 39086 98.5559 261.6595 0001766 166.3001 193.8232 14.32830529682102 GAOFEN-1 1 39150U 13018A 26073.93389257 .00000358 00000+0 58569-4 0 9997 2 39150 97.9167 147.8890 0016678 206.5286 153.5072 14.76554799694338 VNREDSAT 1 1 39160U 13021B 26073.96382838 .00000458 00000+0 94156-4 0 9996 2 39160 97.9208 130.9410 0001568 84.3535 275.7848 14.64897753686490 ARIRANG-5 (KOMPSAT-5) 1 39227U 13042A 26073.92378861 .00002710 00000+0 19795-3 0 9998 2 39227 97.6216 261.9344 0004705 100.0983 260.0775 15.04492373689684 SKYSAT-A 1 39418U 13066C 26073.92856016 .00003800 00000+0 22158-3 0 9997 2 39418 97.3947 126.3094 0019947 281.0017 78.8970 15.12396780674233 DUBAISAT-2 1 39419U 13066D 26073.96044037 .00004283 00000+0 27131-3 0 9996 2 39419 97.4538 66.6444 0011536 7.8064 352.3343 15.09421790672179 GPM-CORE 1 39574U 14009C 26073.88938805 .00009933 00000+0 21543-3 0 9990 2 39574 64.9719 264.0686 0012381 267.4472 92.5251 15.44812055683247 SENTINEL-1A 1 39634U 14016A 26073.94466203 -.00000080 00000+0 -72683-5 0 9999 2 39634 98.1823 82.8398 0001352 83.8993 276.2361 14.59198944636272 KAZEOSAT 1 1 39731U 14024A 26073.93485267 .00000102 00000+0 44104-4 0 9995 2 39731 98.3275 148.7024 0001023 87.7378 272.3929 14.42038041624970 ALOS-2 1 39766U 14029A 26073.92639301 .00000948 00000+0 13366-3 0 9990 2 39766 97.9189 172.4479 0001454 94.1432 265.9946 14.79524436637649 KAZEOSAT 2 1 40010U 14033A 26073.92185185 .00001351 00000+0 16283-3 0 9995 2 40010 97.5488 278.4733 0007080 272.3590 87.6816 14.85347970634967 HODOYOSHI-4 1 40011U 14033B 26073.95749113 .00002703 00000+0 29990-3 0 9997 2 40011 97.5458 263.3347 0022172 257.6134 102.2601 14.87868785634799 DEIMOS-2 1 40013U 14033D 26073.92189145 .00003698 00000+0 35710-3 0 9990 2 40013 97.5973 311.6649 0000715 66.7572 293.3724 14.93432402623650 HODOYOSHI-3 1 40015U 14033F 26073.93586387 .00001452 00000+0 17428-3 0 9994 2 40015 97.6310 240.8322 0031784 306.4330 53.3956 14.85155360633631 SPOT 7 1 40053U 14034A 26073.93789904 .00000315 00000+0 73783-4 0 9991 2 40053 98.0737 138.8213 0001475 98.6562 261.4806 14.60867162623376 SKYSAT-B 1 40072U 14037D 26073.84106373 .00001800 00000+0 20404-3 0 9999 2 40072 98.3730 27.5048 0004645 213.1543 146.9382 14.87749231631930 WORLDVIEW-3 (WV-3) 1 40115U 14048A 26073.89705594 .00001122 00000+0 13835-3 0 9991 2 40115 97.8626 150.0209 0000311 177.2038 182.9179 14.84848520627917 GAOFEN-2 1 40118U 14049A 26073.98360126 .00000175 00000+0 29670-4 0 9995 2 40118 98.0215 138.2455 0007451 168.1580 191.9809 14.80778030625294 YAOGAN-21 1 40143U 14053A 26073.91482692 .00007677 00000+0 30975-3 0 9997 2 40143 97.1616 118.2300 0009987 71.6923 288.5401 15.25017551640583 YAOGAN-22 1 40275U 14063A 26073.88232578 -.00000011 00000+0 94889-4 0 9997 2 40275 100.7549 223.6443 0006589 47.0386 313.1276 13.15527574547410 ASNARO 1 40298U 14070A 26073.92786287 .00007702 00000+0 36636-3 0 9994 2 40298 97.3511 152.5539 0006688 140.6385 219.5337 15.19431954629690 YAOGAN-24 1 40310U 14072A 26073.92992367 .00000989 00000+0 15032-3 0 9996 2 40310 98.1309 210.5579 0012659 200.7162 159.3535 14.76242130609815 CBERS 4 1 40336U 14079A 26073.94098769 .00000010 00000+0 18031-4 0 9994 2 40336 98.3476 133.7845 0000724 40.5654 319.5586 14.35516098590433 YAOGAN-26 1 40362U 14088A 26073.92464234 .00039554 00000+0 88067-3 0 9995 2 40362 97.0667 76.5971 0006473 54.1547 306.0302 15.43496252623144 SMAP 1 40376U 15003A 26073.92621517 .00000620 00000+0 12908-3 0 9990 2 40376 98.1311 82.3416 0001555 109.8137 250.3233 14.63346684593835 KOMPSAT-3A 1 40536U 15014A 26073.95658994 .00030267 00000+0 51514-3 0 9998 2 40536 97.6873 58.7941 0063892 158.5359 201.8593 15.49023064607205 SENTINEL-2A 1 40697U 15028A 26073.94901433 .00000023 00000+0 25491-4 0 9992 2 40697 98.5647 150.1649 0001253 99.4167 260.7158 14.30815031560253 GAOFEN-8 1 40701U 15030A 26073.93733417 .00023521 00000+0 54022-3 0 9994 2 40701 97.6937 261.8708 0009652 169.5139 190.6311 15.42654130596904 CARBONITE 1 (CBNT-1) 1 40718U 15032D 26073.95099649 .00004984 00000+0 61472-3 0 9997 2 40718 97.6469 255.9952 0013347 241.6233 118.3636 14.83251743575372 YAOGAN-27 1 40878U 15040A 26073.99073564 -.00000353 00000+0 -81768-3 0 9993 2 40878 100.1113 64.4840 0008897 72.9563 287.2525 13.16065339505273 GAOFEN-9 01 1 40894U 15047A 26073.99308435 .00001237 00000+0 15847-3 0 9991 2 40894 97.6404 113.9221 0028968 89.3798 271.0736 14.82696183566239 YAOGAN-28 1 41026U 15064A 26073.94669266 .00009682 00000+0 37733-3 0 9995 2 41026 97.2904 214.3010 0011587 158.6107 201.5619 15.26101042576304 YAOGAN-29 1 41038U 15069A 26073.98982115 .00000478 00000+0 65526-4 0 9994 2 41038 98.0145 102.4336 0001594 28.2596 331.8703 14.83002611556664 KENT RIDGE 1 1 41167U 15077B 26073.84530881 .00005605 00000+0 20261-3 0 9993 2 41167 14.9790 247.2814 0008500 348.9379 11.0756 15.22500532566692 GAOFEN-4 1 41194U 15083A 26072.51971139 -.00000334 00000+0 00000+0 0 9998 2 41194 0.4018 83.7567 0003926 77.9435 302.2136 1.00269807 37577 JASON-3 1 41240U 16002A 26073.94438830 -.00000010 00000+0 20775-3 0 9992 2 41240 66.0437 323.9749 0007711 277.0767 82.9375 12.87626534475114 SENTINEL-3A 1 41335U 16011A 26073.89181435 .00000125 00000+0 69688-4 0 9990 2 41335 98.6219 142.6023 0001254 96.3321 263.8003 14.26736006524612 ZIYUAN 3-02 (ZY 3-02) 1 41556U 16033A 26073.93538712 .00008394 00000+0 37391-3 0 9999 2 41556 97.3896 151.4968 0010898 277.7559 82.2439 15.21639595543654 CARTOSAT-2C 1 41599U 16040A 26073.94063333 .00005133 00000+0 24623-3 0 9999 2 41599 97.4605 135.1604 0010628 105.0118 255.2293 15.19281039539402 SKYSAT-C1 1 41601U 16040C 26073.85225013 .00012891 00000+0 38608-3 0 9995 2 41601 96.9697 110.7361 0003113 43.2426 316.9062 15.34631154543392 LAPAN-A3 1 41603U 16040E 26073.92240934 .00004626 00000+0 14989-3 0 9997 2 41603 97.1483 73.2181 0010380 4.9846 355.1498 15.32437126540371 GAOFEN-3 1 41727U 16049A 26074.00759249 -.00000098 00000+0 -16507-4 0 9997 2 41727 98.4056 83.2023 0001699 87.4043 272.7341 14.42217117505077 SKYSAT-C4 1 41771U 16058B 26073.57626510 .00022462 00000+0 46837-3 0 9996 2 41771 96.9288 99.4611 0001269 131.7607 228.3752 15.45566489530849 SKYSAT-C5 1 41772U 16058C 26073.84767610 .00011313 00000+0 34482-3 0 9990 2 41772 97.0612 118.6898 0000376 100.9587 259.1699 15.34111302529283 SKYSAT-C2 1 41773U 16058D 26073.64732832 .00017182 00000+0 43416-3 0 9994 2 41773 97.0277 99.4011 0004664 57.5399 302.6298 15.39850850530493 SKYSAT-C3 1 41774U 16058E 26073.59877289 .00028643 00000+0 53781-3 0 9995 2 41774 96.9177 108.2625 0001752 113.2146 246.9290 15.48568039531450 ALSAT-1B 1 41785U 16059C 26073.97263534 .00000268 00000+0 50019-4 0 9997 2 41785 97.7807 86.7911 0009515 160.5464 199.6109 14.72193314506712 PATHFINDER 1 1 41787U 16059E 26073.91247921 .00000905 00000+0 16675-3 0 9992 2 41787 97.8179 77.4492 0029316 144.5156 215.8007 14.67529093505885 SCATSAT 1 1 41790U 16059H 26073.92993454 .00001660 00000+0 22516-3 0 9996 2 41790 98.1295 136.6994 0054739 190.5054 169.5017 14.79282758 87655 GOKTURK 1A 1 41875U 16073A 26073.98529737 .00000574 00000+0 12174-3 0 9993 2 41875 98.1356 330.0837 0001347 77.4844 282.6508 14.62755651495058 RESOURCESAT-2A 1 41877U 16074A 26073.96945117 .00000199 00000+0 11104-3 0 9993 2 41877 98.7594 148.2209 0002202 23.8460 336.2819 14.21602891480914 CARTOSAT-2D 1 41948U 17008A 26071.86645005 -.00000025 00000+0 20080-5 0 9994 2 41948 97.4226 132.9125 0004511 206.0706 154.0302 15.19280641502956 SENTINEL-2B 1 42063U 17013A 26073.94174152 -.00000054 00000+0 -39538-5 0 9991 2 42063 98.5647 150.0591 0001153 96.8913 263.2401 14.30821504471168 CARTOSAT-2E 1 42767U 17036C 26073.06902649 -.00000272 00000+0 -97461-5 0 9991 2 42767 97.4397 134.3841 0002580 284.3598 75.7351 15.19224887483702 FORMOSAT-5 1 42920U 17049A 26073.91409296 .00000216 00000+0 65859-4 0 9991 2 42920 98.2304 151.3088 0011390 21.2754 338.8913 14.50824602453005 SENTINEL-5P 1 42969U 17064A 26073.82055646 .00000088 00000+0 62939-4 0 9990 2 42969 98.7888 16.6398 0001080 92.8052 267.3248 14.19500687436172 SKYSAT-C11 1 42987U 17068A 26073.93722210 .00040383 00000+0 65187-3 0 9993 2 42987 97.4205 219.0972 0000428 83.3965 276.7337 15.52788202468594 SKYSAT-C10 1 42988U 17068B 26073.88928094 .00013730 00000+0 43533-3 0 9993 2 42988 97.4338 210.0259 0001006 95.1690 264.9666 15.32819988467902 SKYSAT-C9 1 42989U 17068C 26073.91469053 .00019123 00000+0 49472-3 0 9993 2 42989 97.4263 210.1326 0009924 115.7701 244.4570 15.39078010468240 SKYSAT-C8 1 42990U 17068D 26073.93177568 .00015408 00000+0 45685-3 0 9998 2 42990 97.4356 209.5255 0001268 97.5862 262.5526 15.34925793467847 SKYSAT-C7 1 42991U 17068E 26073.92202902 .00015715 00000+0 46625-3 0 9995 2 42991 97.4367 210.4986 0007269 87.6996 272.5080 15.34877851467901 SKYSAT-C6 1 42992U 17068F 26073.92596767 .00014116 00000+0 44997-3 0 9995 2 42992 97.4401 210.7723 0003743 115.5120 244.6509 15.32638763467873 CARTOSAT-2F 1 43111U 18004A 26073.89128709 .00005008 00000+0 24034-3 0 9993 2 43111 97.4159 134.9572 0001468 181.7577 178.3652 15.19320436453012 GAOFEN-1 02 1 43259U 18031A 26072.67387638 .00000581 00000+0 90900-4 0 9996 2 43259 98.0637 135.4203 0002195 336.3176 23.7932 14.76449151428600 GAOFEN-1 03 1 43260U 18031B 26073.93963826 .00000972 00000+0 14726-3 0 9992 2 43260 98.0624 136.5525 0003170 37.6899 322.4532 14.76430283428784 GAOFEN-1 04 1 43262U 18031D 26073.98315956 .00000543 00000+0 85539-4 0 9999 2 43262 98.0639 136.7753 0001823 75.4421 284.6990 14.76446660428784 SENTINEL-3B 1 43437U 18039A 26073.93508060 .00000121 00000+0 68120-4 0 9995 2 43437 98.6218 142.7923 0001176 125.9985 234.1305 14.26738356410681 GAOFEN-5 01 1 43461U 18043A 26073.93340293 .00000529 00000+0 11905-3 0 9999 2 43461 98.4473 43.5951 0002417 42.3745 317.7641 14.60530036417932 GAOFEN-6 1 43484U 18048A 26073.94618542 .00000979 00000+0 14709-3 0 9999 2 43484 97.7865 140.0411 0013465 119.1573 241.0987 14.76606670419484 GAOFEN-11 01 1 43585U 18063A 26073.96068471 .00018593 00000+0 30535-3 0 9996 2 43585 97.1403 141.2511 0003076 345.0264 15.0897 15.52450914425711 ICESAT-2 1 43613U 18070A 26073.86519279 .00004046 00000+0 14696-3 0 9990 2 43613 91.9991 265.5613 0004004 110.3728 249.7952 15.28250747418052 HYSIS 1 43719U 18096A 26073.94678745 .00001315 00000+0 18644-3 0 9991 2 43719 97.9934 141.3954 0001830 95.7539 264.3881 14.78672833393493 KAZSTSAT 1 43783U 18099AB 26073.69005624 .00001456 00000+0 12274-3 0 9996 2 43783 97.4386 109.8586 0005843 355.4413 4.6757 14.99636528397142 SAUDISAT 5A 1 43831U 18102A 26073.96647965 .00007833 00000+0 29760-3 0 9998 2 43831 97.3183 137.3823 0011524 106.5699 253.6807 15.27015173401297 SAUDISAT 5B 1 43833U 18102C 26073.93720363 .00007787 00000+0 29311-3 0 9991 2 43833 97.3280 140.2546 0012227 108.7441 251.5126 15.27319990401400 GAOFEN-10R 1 44622U 19066A 26073.96076067 .00001803 00000+0 22750-3 0 9999 2 44622 98.0404 26.9192 0008287 92.0514 268.1649 14.83174972348412 CARTOSAT-3 1 44804U 19081A 26073.90637512 .00004030 00000+0 19418-3 0 9992 2 44804 97.4422 137.2379 0013377 121.1890 239.0658 15.19226583349152 GAOFEN-12 01 1 44819U 19082A 26073.92717628 .00000579 00000+0 82547-4 0 9996 2 44819 97.8139 82.7876 0001527 53.6914 306.4439 14.80372496340141 CSG-1 1 44873U 19092A 26073.94166112 .00000679 00000+0 91805-4 0 9993 2 44873 97.8871 258.9037 0001377 85.2467 274.8903 14.82156795337512 NEMO-HD 1 46277U 20061F 26073.93919434 .00013818 00000+0 31910-3 0 9992 2 46277 97.2040 136.9264 0002159 72.8061 287.3423 15.42638833307442 SENTINEL-6A 1 46984U 20086A 26073.92594080 -.00000049 00000+0 51369-4 0 9993 2 46984 66.0440 330.8376 0007703 270.9373 89.0760 12.80929861248258 GAOFEN-12 02 1 48079U 21026A 26073.92822168 .00000573 00000+0 82274-4 0 9996 2 48079 97.9920 72.5061 0005016 163.5052 196.6324 14.80210561267814 PLEIADES NEO 3 1 48268U 21034A 26073.91029231 .00000409 00000+0 58601-4 0 9999 2 48268 97.8933 150.0301 0001326 91.7510 268.3854 14.81674303263693 PLEIADES NEO 4 1 49070U 21073E 26073.94404814 -.00000612 00000+0 -71167-4 0 9991 2 49070 97.8930 150.0591 0001304 92.8362 267.3001 14.81670551247412 LANDSAT 9 1 49260U 21088A 26073.91369384 .00000448 00000+0 10943-3 0 9996 2 49260 98.1930 145.6156 0001111 94.7700 265.3626 14.57131020237277 CSG-2 1 51444U 22008A 26073.90788786 .00000299 00000+0 44149-4 0 9996 2 51444 97.8870 258.8676 0001374 80.4701 279.6667 14.82146796222621 GAOFEN-12 03 1 52912U 22069A 26073.93872260 .00001631 00000+0 22310-3 0 9994 2 52912 97.8403 324.1335 0002392 85.5899 274.5586 14.79867408200679 SWOT 1 54754U 22173A 26073.88302850 .00000005 00000+0 52820-5 0 9998 2 54754 77.6118 162.6125 0000595 248.1972 111.9117 14.00170398165952 GAOFEN-12 04 1 57654U 23123A 26073.96676459 .00001487 00000+0 20332-3 0 9990 2 57654 97.9129 353.3511 0001601 74.1498 285.9891 14.80020943138698 PARS 1 1 59065U 24039Q 26073.93143378 .00015927 00000+0 35514-3 0 9993 2 59065 97.4753 52.0707 0012144 95.1113 265.1521 15.43588278114093 RESURS-P 4 1 59371U 24061A 26073.96780020 .00004792 00000+0 15285-3 0 9993 2 59371 97.2656 23.5320 0002087 54.7459 305.3979 15.32978466109331 LEGION 1 1 59625U 24081A 26073.88064300 .00005598 00000+0 29131-3 0 9994 2 59625 97.5070 152.7285 0009654 356.2491 3.8668 15.16401099103248 LEGION 2 1 59626U 24081B 26073.92050042 .00005152 00000+0 26673-3 0 9992 2 59626 97.5068 152.8427 0009795 325.6793 34.3806 15.16621358103252 ALOS-4 (DAICHI-4) 1 60182U 24123A 26073.94595088 .00002346 00000+0 32080-3 0 9995 2 60182 97.9193 172.4694 0001560 101.4848 258.6538 14.79479094 91942 LEGION 3 1 60452U 24146A 26073.75068641 .00006699 00000+0 35342-3 0 9998 2 60452 45.0006 176.7634 0013011 348.2455 11.8119 15.16214787 87698 LEGION 4 1 60453U 24146B 26073.88039210 .00006534 00000+0 34477-3 0 9999 2 60453 45.0024 267.9139 0009686 137.9000 222.2624 15.16272685 86569 SENTINEL-2C 1 60989U 24157A 26073.83690790 .00000136 00000+0 68486-4 0 9996 2 60989 98.5680 149.9755 0000852 108.9989 251.1287 14.30816347 79491 IONOSFERA-M 1 1 61735U 24199A 26073.88614164 .00000050 00000+0 42151-4 0 9994 2 61735 98.7319 307.9846 0002039 69.0964 291.0432 14.22736229114292 IONOSFERA-M 2 1 61736U 24199B 26073.92063277 .00000062 00000+0 47535-4 0 9997 2 61736 98.7318 307.9303 0000517 134.2833 225.8387 14.22738916117426 BIOMASS 1 63772U 25090A 26073.93918467 .00000412 00000+0 81094-4 0 9998 2 63772 98.0740 262.6132 0001335 85.2039 274.9318 14.67538287 46865 GOSAT-GW (IBUKI GW) 1 64694U 25141A 26065.03170321 .00001373 00000+0 25032-3 0 9996 2 64694 98.0504 4.0681 0001432 83.7436 276.3932 14.67569112 36718 IONOSFERA-M 3 1 64876U 25155A 26073.92433751 .00000086 00000+0 59087-4 0 9997 2 64876 98.5930 38.2532 0002263 110.0590 250.0831 14.21467974 33010 IONOSFERA-M 4 1 64877U 25155B 26073.95931010 .00000093 00000+0 61966-4 0 9999 2 64877 98.5927 38.2056 0001779 97.8621 262.2759 14.21469814 33015 MICROCARB 1 64899U 25156A 26073.95276020 .00000725 00000+0 12267-3 0 9998 2 64899 97.9879 152.7633 0015793 209.2621 150.7703 14.72211660 34102 CO3D 3 1 64900U 25156B 26073.92940285 .00006167 00000+0 28784-3 0 9996 2 64900 97.4331 153.9758 0001674 126.1819 233.9572 15.20194171 35215 CO3D 4 1 64901U 25156C 26073.86372953 .00002888 00000+0 13642-3 0 9994 2 64901 97.4330 153.9109 0000642 195.2287 164.8929 15.20211182 35204 CO3D 2 1 64902U 25156D 26073.89621491 .00004949 00000+0 23156-3 0 9993 2 64902 97.4329 153.8419 0001501 107.2361 252.9039 15.20207160 35209 CO3D 1 1 64903U 25156E 26073.89636622 .00007245 00000+0 33758-3 0 9997 2 64903 97.4333 153.8418 0001340 115.2039 244.9335 15.20191623 35202 SENTINEL-6B 1 66514U 25264A 26073.92627887 -.00000048 00000+0 56025-4 0 9992 2 66514 66.0440 330.9630 0007930 270.6626 89.3480 12.80929588 15095 CSG-3 1 67304U 26001A 26073.95432966 .00000520 00000+0 71835-4 0 9995 2 67304 97.8870 258.9158 0001406 87.0290 273.1084 14.82155389 10503